Погода в Тюменцеве

Россия / Алтайский край     53°19′03″N   81°30′01″E
темп.,
°C
ветер,
м/с
пор.,
м/с
влажн.,
%
обл.,
%
осадки,
мм/ч
давл.,
гПа
погр.,
м
24 октября, вс
вс2401:00+7ююз101765100 0.4 1020829
04:00+8ююз101760100 0.0 1020757
07:00+8юз101760100 0.0 1020755
10:00+8юз91563100 0.0 1022754
13:00+11юз9136098 0.0 10211029
16:00+12юз8115845 0.0 10221285
19:00+10юз6116731 0.0 1023338
22:00+8ююз61367100 0.0 1023370
25 октября, пн
пн2501:00+8ююз6137098 0.0 1022376
04:00+8ююз61472100 0.0 1021380
07:00+7ююз71570100 0.0 1020412
10:00+7ююз71662100 0.0 1019526
13:00+12юз81442100 0.0 1018837
16:00+13юз71238100 0.0 1018918
19:00+9юз494780 0.0 1019185
22:00+8ююз3652100 0.0 1019102
26 октября, вт
вт2601:00+7ююз355788 0.0 101972
04:00+6ю3662100 0.0 1017101
07:00+7ю41052100 0.0 1015196
10:00+8ю61741100 0.0 1012570
13:00+12ююз81232100 0.0 1009778
16:00+14юз81433100 0.0 1007985
19:00+12юз71534100 0.0 1007514
22:00+10з61251100 0.0 1010604
27 октября, ср
ср2701:00+4зсз61185100 0.3 1015867
04:00+3сз6866100 0.1 1019905
07:00+1сз4663100 0.1 1023767
10:00+1сз3464100 0.0 1025526
13:00+2зсз3349100 0.0 1026911
16:00+3з443990 0.0 10261097
19:00+1з344414 0.0 102775
22:00−1зсз23500 0.0 102949
28 октября, чт
чт2801:00−2з225244 0.0 103037
04:00−2юз2252100 0.0 103151
07:00−2ююз2352100 0.0 103259
10:00−1ююз355012 0.0 1032193
13:00+3юз45355 0.0 1032679
16:00+4юз45305 0.0 1030915
19:00+1ююз353911 0.0 103089
22:000ю4114342 0.0 1029231